Home > Weather > Marrakech > Past weeks

Flag for Morocco Weather for the Past 2 Weeks in Marrakech, Morocco

Now
73 °F

Partly sunny.


Feels Like: 77 °F
Forecast: 54 / 76 °F
Wind: 12 mph from West

Location: Marrakech Airport

Current Time: May 6, 2016 at 6:42:32 PM

Latest Report: May 6, 2016 at 6:00 PM


Visibility: N/A

Pressure: 29.92 "Hg

Humidity: 47%

Dew Point: 52 °F

Location of MarrakechLocation

Historic Weather in Marrakech — Graph

°F

Marrakech Temperature Yesterday

Maximum temperature yesterday: 77 °F (at 5:30 PM)
Minimum temperature yesterday: 59 °F (at 4:30 AM)
Average temperature yesterday: 66 °F

High & Low Weather Summary for the Past Weeks

 TemperatureHumidityPressure
High91 °F (Apr 26, 4:30 PM)100% (Apr 24, 5:30 AM)30.12 "Hg (Apr 24, 5:30 AM)
Low55 °F (Apr 23, 6:30 AM)17% (Apr 22, 3:00 PM)29.80 "Hg (Apr 25, 4:30 PM)
Average72 °F55%29.94 "Hg
* Reported Apr 21 5:00 PM — May 6 5:30 PM, Marrakech, Weather by CustomWeather, © 2016

Note: Actual official high and low records may vary slightly from our data, if they occured in-between our weather recording intervals... More about our weather records

Advertising

Marrakech Weather History for the Previous 24 Hours

Scroll right to see more
 ConditionsComfort  
Time TempWeatherWind HumidityBarometerVisibility
5:30 PM
Fri, May 6
75 °FPartly sunny.14 mph44%29.92 "HgN/A
5:00 PM77 °FPartly sunny.12 mph39%29.92 "HgN/A
4:30 PM75 °FPartly sunny.9 mph41%29.92 "HgN/A
4:00 PM77 °FBroken clouds.12 mph42%29.92 "HgN/A
3:30 PM73 °FBroken clouds.12 mph47%29.92 "HgN/A
3:00 PM73 °FBroken clouds.15 mph44%29.95 "HgN/A
2:30 PM75 °FBroken clouds.10 mph41%29.95 "HgN/A
2:00 PM73 °FBroken clouds.10 mph47%29.95 "HgN/A
1:30 PM73 °FBroken clouds.8 mph50%29.95 "HgN/A
1:00 PM73 °FBroken clouds.8 mph50%29.95 "HgN/A
12:30 PM70 °FBroken clouds.7 mph60%29.95 "HgN/A
12:00 PM72 °FBroken clouds.8 mph57%29.95 "HgN/A
11:30 AM70 °FBroken clouds.6 mph57%29.95 "HgN/A
11:00 AM70 °FScattered clouds.6 mph60%29.98 "HgN/A
10:30 AM66 °FBroken clouds.2 mph68%29.98 "HgN/A
10:00 AM64 °FBroken clouds.2 mph73%29.98 "HgN/A
9:30 AM63 °FPartly sunny.5 mph73%29.98 "HgN/A
9:00 AM63 °FPartly sunny.3 mph73%29.95 "HgN/A
8:30 AM61 °FPartly sunny.3 mph77%29.95 "HgN/A
8:00 AM61 °FPartly sunny.2 mph77%29.95 "HgN/A
7:30 AM59 °FPartly sunny.2 mph88%29.95 "HgN/A
7:00 AM59 °FPartly sunny.3 mph88%29.95 "HgN/A
6:30 AM59 °FPassing clouds.5 mph88%29.95 "HgN/A
6:00 AM59 °FPassing clouds.8 mph88%29.95 "HgN/A
5:30 AM59 °FPassing clouds.8 mph88%29.95 "HgN/A
5:00 AM59 °FPassing clouds.8 mph88%29.95 "HgN/A
4:30 AM59 °FCool.7 mph88%29.95 "HgN/A
4:00 AM61 °FPassing clouds.5 mph83%29.95 "HgN/A
3:30 AM61 °FPassing clouds.6 mph83%29.95 "HgN/A
3:00 AM61 °FPassing clouds.8 mph83%29.95 "HgN/A
2:30 AM61 °FPassing clouds.7 mph83%29.95 "HgN/A
2:00 AM61 °FPassing clouds.6 mph83%29.95 "HgN/A
1:00 AM61 °FPassing clouds.9 mph83%29.95 "HgN/A
12:30 AM61 °FPassing clouds.9 mph83%29.98 "HgN/A
12:00 AM61 °FPartly cloudy.9 mph83%29.98 "HgN/A
11:30 PM
Thu, May 5
63 °FPassing clouds.8 mph77%29.98 "HgN/A
11:00 PM63 °FPassing clouds.7 mph77%29.98 "HgN/A
10:30 PM64 °FPassing clouds.9 mph73%29.98 "HgN/A
10:00 PM64 °FPassing clouds.12 mph73%29.98 "HgN/A
9:30 PM64 °FPassing clouds.10 mph73%29.95 "HgN/A
9:00 PM66 °FPassing clouds.12 mph68%29.95 "HgN/A
8:30 PM66 °FPassing clouds.12 mph68%29.95 "HgN/A
8:00 PM68 °FScattered clouds.14 mph64%29.92 "HgN/A
7:30 PM70 °FBroken clouds.15 mph60%29.92 "HgN/A
7:00 PM72 °FBroken clouds.15 mph57%29.89 "HgN/A
6:30 PM73 °FScattered clouds.3 mph53%29.89 "HgN/A
6:00 PM75 °FScattered clouds.7 mph54%29.89 "HgN/A
Weather by CustomWeather, © 2016

See weather overviewHow to use our weather pages